{"data":{"norad_id":56026,"intl_designator":"2023-042AS","name":"STARLINK-5770","alt_names":[],"object_type":"PAYLOAD","status":"ACTIVE","operator":null,"country":"US","launch_date":"2023-03-24","launch_site_code":"AFETR","launch_vehicle":null,"mission":null,"orbit_class":"UNKNOWN","rcs_meters":null,"size_class":null,"mass_kg":null,"dimensions":null,"purposes":["comms"],"wikipedia_slug":null,"has_3d_model":false,"image_url":null,"decayed_at":null,"tle_current":{"epoch":"2026-09-20T19:56:49.963776Z","epoch_age_seconds":77570,"freshness":"FRESH","line1":"1 56026U 23042AS  26263.83113384  .00000329  00000+0  21470-4 0  9991","line2":"2 56026  43.0022  22.8480 0001242 269.9936  90.0774 15.27577582192872","mean_motion":15.27577582,"eccentricity":0.0001242,"inclination_deg":43.0022,"raan_deg":22.848,"arg_perigee_deg":269.9936,"mean_anomaly_deg":90.0774,"bstar":2.147e-5,"rev_number":19287,"period_min":94.266897928331,"perigee_km":482.20417619869,"apogee_km":483.90849662346,"semimajor_km":6861.1933364111,"source":"CELESTRAK","updated_at":"2026-09-21T09:00:33.357882Z"}}}